Location: Akdamlar
(36.8729°N, 30.5187°E)
Time: 18:56:08
(UTC+00:00)

Cosmos 1975 Rocket - Pass Details

Date: 18 September 2020
Orbit: 603 x 634 km, 82.5° (Epoch: 26 October)

Event Time Altitude Azimuth Distance (km) Brightness Sun altitude
Rises 17:31:17 0° 346° (NNW) 2,870 6.9 -18.7°
Reaches altitude 10° 17:33:34 10° 340° (NNW) 1,959 6.1 -19.1°
Maximum altitude 17:37:42 46° 267° (W) 814 4.0 -19.9°
Drops below altitude 10° 17:41:48 10° 194° (SSW) 1,940 5.6 -20.7°
Sets 17:44:03 0° 189° (S) 2,839 6.4 -21.1°
